#timestamp,LO_Frequency,Hit,StdDev 
1622047055.1,286046999.6,P
1622047075.8,286046997.0,P
1622047095.7,286046995.8,P
1622047115.5,286046996.9,N
1622047135.4,286046997.3,N
1622047155.2,286046997.1,N
1622047175.0,286046998.6,N
1622047175.9,286046998.6,N
1622047195.8,286046998.6,N
1622047215.6,286046999.1,N
1622047235.4,286046997.1,N
1622047255.3,286046998.2,N
1622047275.1,286046998.2,N
1622047295.9,286046998.3,N
1622047315.7,286047000.9,N
1622047335.5,286047000.9,N
1622047355.4,286046999.6,N
1622047375.2,286046999.2,N
1622047395.0,286047000.6,N
1622047395.9,286047000.6,N
1622047415.8,286046998.3,N
1622047435.6,286046998.4,N
1622047455.5,286046998.8,N
1622047475.3,286046998.3,N
1622047495.1,286046998.8,N
1622047515.9,286046999.1,N
1622047535.7,286046997.4,N
1622047555.5,286046997.2,N
1622047575.4,286046998.8,N
1622047595.2,286046996.9,N
1622047615.1,286046998.5,N
1622047616.0,286046998.5,N
1622047635.8,286046996.7,N
1622047655.6,286046996.7,N
1622047675.5,286046997.3,N
1622047695.3,286046999.2,N
1622047715.1,286046999.4,N
1622047735.9,286046997.1,N
1622047755.7,286046997.7,N
1622047775.6,286046997.1,N
1622047795.4,286046997.6,N
1622047815.2,286046997.3,N
1622047835.1,286046997.7,N
1622047836.0,286046997.7,N
1622047855.8,286046997.0,N
1622047875.6,286046997.6,N
1622047895.5,286046997.1,N
1622047915.3,286046997.6,N
1622047935.2,286046995.6,Y
1622047955.9,286046996.9,P
1622047975.7,286046996.8,P
1622047995.6,286046998.0,P
1622048015.4,286046996.5,Y
1622048035.3,286047002.3,P
1622048055.1,286047002.2,N
1622048056.0,286047002.2,N
1622048075.8,286047000.1,N
1622048095.7,286047001.5,N
1622048115.5,286047003.1,N
1622048135.3,286047003.0,N
1622048155.2,286047003.2,N
1622048175.0,286047002.9,N
1622048175.9,286047002.9,N
1622048195.8,286047005.7,Y
1622048215.6,286047002.2,P
1622048235.4,286047001.1,P
1622048255.3,286046997.5,P
1622048275.1,286046997.8,N
1622048295.8,286046997.3,N
1622048315.7,286046997.2,N
1622048335.5,286046995.0,N
1622048355.4,286046991.8,Y
1622048375.2,286046991.7,P
1622048395.0,286046992.8,N
1622048395.9,286046992.8,N
